When you browse on this site, cookies collect data to enhance your experience and personalize the content and advertising you see.
Visit our Privacy Policy to learn more. By continuing to use the site, you agree to this use of cookies and data.

Stündliche Wetter Tlanchinol

Heute, 15 August, Samstag

Zeit Temperatur Niederschläge Wind Luftdruck Luftfeuchtigkeit
00:00 +16°C° 0 mm 1 m/S 646 mmHg 91%
01:00 +15°C° 0 mm 1 m/S 645 mmHg 90%
02:00 +15°C° 0 mm 1 m/S 644 mmHg 89%
03:00 +15°C° 0 mm 1 m/S 644 mmHg 89%
04:00 +15°C° 0 mm 1 m/S 645 mmHg 88%
05:00 +15°C° 0 mm 1 m/S 645 mmHg 89%
06:00 +18°C° 0 mm 1 m/S 646 mmHg 82%
07:00 +20°C° 0 mm 1 m/S 646 mmHg 75%
08:00 +20°C° 0 mm 0 m/S 647 mmHg 68%
09:00 +23°C° 0 mm 1 m/S 647 mmHg 65%
10:00 +24°C° 0 mm 2 m/S 648 mmHg 62%
11:00 +25°C° 0 mm 2 m/S 648 mmHg 59%
12:00 +25°C° 0.1 mm 2 m/S 647 mmHg 61%
13:00 +25°C° 0.1 mm 2 m/S 647 mmHg 64%
14:00 +25°C° 0.1 mm 2 m/S 646 mmHg 66%
15:00 +24°C° 0.8 mm 2 m/S 646 mmHg 73%
16:00 +23°C° 0.8 mm 2 m/S 646 mmHg 80%
17:00 +20°C° 0.8 mm 2 m/S 646 mmHg 88%
18:00 +20°C° 0.7 mm 1 m/S 646 mmHg 90%
19:00 +19°C° 0.7 mm 1 m/S 646 mmHg 92%
20:00 +18°C° 0.7 mm 1 m/S 647 mmHg 94%
21:00 +18°C° 0.1 mm 1 m/S 647 mmHg 94%
22:00 +18°C° 0.1 mm 1 m/S 647 mmHg 94%
23:00 +16°C° 0.1 mm 1 m/S 647 mmHg 93%

Morgen, 16 August, Sonntag

Zeit Temperatur Niederschläge Wind Luftdruck Luftfeuchtigkeit
00:00 +16°C° 0 mm 1 m/S 646 mmHg 93%
01:00 +16°C° 0 mm 1 m/S 646 mmHg 93%
02:00 +16°C° 0 mm 1 m/S 645 mmHg 93%
03:00 +16°C° 0 mm 1 m/S 646 mmHg 93%
04:00 +15°C° 0 mm 1 m/S 646 mmHg 93%
05:00 +15°C° 0 mm 1 m/S 646 mmHg 93%
06:00 +18°C° 0 mm 1 m/S 647 mmHg 87%
07:00 +20°C° 0 mm 1 m/S 647 mmHg 81%
08:00 +22°C° 0 mm 1 m/S 648 mmHg 76%
09:00 +22°C° 0.1 mm 1 m/S 648 mmHg 75%
10:00 +23°C° 0.1 mm 2 m/S 648 mmHg 73%
11:00 +24°C° 0.1 mm 2 m/S 648 mmHg 72%
12:00 +24°C° 0.6 mm 2 m/S 647 mmHg 74%
13:00 +24°C° 0.6 mm 2 m/S 647 mmHg 76%
14:00 +24°C° 0.6 mm 2 m/S 647 mmHg 78%
15:00 +21°C° 2.2 mm 2 m/S 646 mmHg 83%
16:00 +21°C° 2.2 mm 1 m/S 646 mmHg 88%
17:00 +20°C° 2.2 mm 1 m/S 646 mmHg 93%
18:00 +20°C° 1 mm 1 m/S 646 mmHg 93%
19:00 +19°C° 1 mm 1 m/S 647 mmHg 94%
20:00 +19°C° 1 mm 1 m/S 647 mmHg 94%
21:00 +18°C° 0 mm 1 m/S 647 mmHg 94%
22:00 +18°C° 0 mm 1 m/S 647 mmHg 94%
23:00 +18°C° 0 mm 1 m/S 647 mmHg 94%

übermorgen, 17 August, Montag

Zeit Temperatur Niederschläge Wind Luftdruck Luftfeuchtigkeit
00:00 +18°C° 0 mm 1 m/S 647 mmHg 93%
01:00 +16°C° 0 mm 1 m/S 647 mmHg 93%
02:00 +16°C° 0 mm 1 m/S 646 mmHg 93%
03:00 +16°C° 0 mm 1 m/S 646 mmHg 93%
04:00 +16°C° 0 mm 1 m/S 646 mmHg 93%
05:00 +16°C° 0 mm 1 m/S 646 mmHg 93%
06:00 +18°C° 0 mm 1 m/S 647 mmHg 88%
07:00 +20°C° 0 mm 1 m/S 648 mmHg 82%
08:00 +20°C° 0 mm 0 m/S 649 mmHg 77%
09:00 +23°C° 0 mm 1 m/S 649 mmHg 73%
10:00 +24°C° 0 mm 1 m/S 649 mmHg 69%
11:00 +25°C° 0 mm 2 m/S 649 mmHg 65%
12:00 +25°C° 0.1 mm 2 m/S 649 mmHg 65%
13:00 +25°C° 0.1 mm 2 m/S 648 mmHg 66%
14:00 +25°C° 0.1 mm 2 m/S 648 mmHg 66%
15:00 +24°C° 0.5 mm 2 m/S 648 mmHg 73%
16:00 +23°C° 0.5 mm 2 m/S 647 mmHg 79%
17:00 +21°C° 0.5 mm 2 m/S 647 mmHg 85%
18:00 +21°C° 0.7 mm 1 m/S 647 mmHg 88%
19:00 +20°C° 0.7 mm 1 m/S 647 mmHg 91%
20:00 +19°C° 0.7 mm 1 m/S 647 mmHg 94%
21:00 +18°C° 0.1 mm 1 m/S 647 mmHg 94%
22:00 +18°C° 0.1 mm 1 m/S 647 mmHg 93%
23:00 +18°C° 0.1 mm 1 m/S 647 mmHg 93%

18 August, Dienstag

Zeit Temperatur Niederschläge Wind Luftdruck Luftfeuchtigkeit
00:00 +16°C° 0 mm 1 m/S 646 mmHg 92%
01:00 +16°C° 0 mm 1 m/S 646 mmHg 92%
02:00 +16°C° 0 mm 1 m/S 646 mmHg 91%
03:00 +16°C° 0 mm 1 m/S 646 mmHg 91%
04:00 +16°C° 0 mm 1 m/S 646 mmHg 91%
05:00 +16°C° 0 mm 1 m/S 646 mmHg 91%
06:00 +19°C° 0 mm 1 m/S 647 mmHg 83%
07:00 +21°C° 0 mm 1 m/S 648 mmHg 76%
08:00 +21°C° 0 mm 0 m/S 649 mmHg 68%
09:00 +24°C° 0.2 mm 1 m/S 649 mmHg 65%
10:00 +25°C° 0.2 mm 1 m/S 649 mmHg 62%
11:00 +26°C° 0.2 mm 2 m/S 648 mmHg 60%
12:00 +25°C° 0.4 mm 2 m/S 648 mmHg 61%
13:00 +25°C° 0.4 mm 2 m/S 647 mmHg 63%
14:00 +25°C° 0.4 mm 2 m/S 647 mmHg 65%
15:00 +24°C° 0.2 mm 2 m/S 646 mmHg 68%
16:00 +24°C° 0.2 mm 1 m/S 646 mmHg 72%
17:00 +23°C° 0.2 mm 1 m/S 646 mmHg 76%
18:00 +22°C° 0 mm 1 m/S 646 mmHg 80%
19:00 +20°C° 0 mm 1 m/S 646 mmHg 84%
20:00 +18°C° 0 mm 1 m/S 646 mmHg 88%
21:00 +18°C° 0 mm 1 m/S 646 mmHg 86%
22:00 +17°C° 0 mm 2 m/S 646 mmHg 85%
23:00 +17°C° 0 mm 2 m/S 646 mmHg 84%

19 August, Mittwoch

Zeit Temperatur Niederschläge Wind Luftdruck Luftfeuchtigkeit
00:00 +17°C° 0 mm 2 m/S 645 mmHg 83%
01:00 +16°C° 0 mm 2 m/S 645 mmHg 81%
02:00 +16°C° 0 mm 1 m/S 644 mmHg 79%
03:00 +16°C° 0 mm 1 m/S 644 mmHg 78%
04:00 +16°C° 0 mm 1 m/S 644 mmHg 77%
05:00 +16°C° 0 mm 1 m/S 644 mmHg 75%
06:00 +19°C° 0 mm 1 m/S 645 mmHg 70%
07:00 +19°C° 0 mm 0 m/S 646 mmHg 64%
08:00 +21°C° 0 mm 0 m/S 647 mmHg 59%
09:00 +24°C° 0 mm 1 m/S 647 mmHg 57%
10:00 +25°C° 0 mm 1 m/S 647 mmHg 54%
11:00 +26°C° 0 mm 2 m/S 647 mmHg 52%
12:00 +26°C° 0 mm 2 m/S 647 mmHg 54%
13:00 +26°C° 0 mm 2 m/S 646 mmHg 56%
14:00 +26°C° 0 mm 2 m/S 645 mmHg 57%
15:00 +25°C° 0 mm 2 m/S 645 mmHg 63%
16:00 +24°C° 0 mm 1 m/S 645 mmHg 69%
17:00 +23°C° 0 mm 1 m/S 645 mmHg 76%
18:00 +22°C° 0 mm 1 m/S 645 mmHg 80%
19:00 +20°C° 0 mm 1 m/S 645 mmHg 85%
20:00 +19°C° 0 mm 1 m/S 645 mmHg 89%
21:00 +19°C° 0 mm 1 m/S 645 mmHg 88%
22:00 +18°C° 0 mm 1 m/S 645 mmHg 87%
23:00 +18°C° 0 mm 1 m/S 645 mmHg 87%

20 August, Donnerstag

Zeit Temperatur Niederschläge Wind Luftdruck Luftfeuchtigkeit
00:00 +18°C° 0 mm 1 m/S 645 mmHg 85%
01:00 +18°C° 0 mm 1 m/S 644 mmHg 84%
02:00 +16°C° 0 mm 1 m/S 644 mmHg 82%
03:00 +16°C° 0 mm 1 m/S 644 mmHg 81%
04:00 +16°C° 0 mm 1 m/S 644 mmHg 80%
05:00 +16°C° 0 mm 1 m/S 644 mmHg 79%
06:00 +19°C° 0 mm 1 m/S 645 mmHg 72%
07:00 +19°C° 0 mm 0 m/S 646 mmHg 65%
08:00 +22°C° 0 mm 0 m/S 647 mmHg 58%
09:00 +25°C° 0 mm 1 m/S 647 mmHg 56%
10:00 +26°C° 0 mm 1 m/S 647 mmHg 53%
11:00 +27°C° 0 mm 2 m/S 646 mmHg 50%
12:00 +27°C° 0 mm 2 m/S 646 mmHg 52%
13:00 +27°C° 0 mm 2 m/S 645 mmHg 53%
14:00 +27°C° 0 mm 2 m/S 644 mmHg 55%
15:00 +26°C° 0 mm 2 m/S 644 mmHg 60%
16:00 +25°C° 0 mm 2 m/S 644 mmHg 66%
17:00 +24°C° 0 mm 1 m/S 644 mmHg 71%
18:00 +22°C° 0.1 mm 1 m/S 644 mmHg 78%
19:00 +20°C° 0.1 mm 1 m/S 644 mmHg 84%
20:00 +19°C° 0.1 mm 1 m/S 644 mmHg 90%
21:00 +18°C° 0.1 mm 1 m/S 644 mmHg 90%
22:00 +18°C° 0.1 mm 1 m/S 644 mmHg 90%
23:00 +18°C° 0.1 mm 1 m/S 644 mmHg 90%
Mehr zeigen